Weather in Miskolc

Hungary     48°06′12″N   20°47′28″E
temp.,
°C
wind,
m/s
gust,
m/s
humid.,
%
clouds,
%
prec.,
mm/h
press.,
hPa
HPBL,
m
6 may, thu
thu623:00+8nw51173100 0.0 1007347
02:00+8wnw61271100 0.0 1010516
05:00+6w3578100 0.0 101198
08:00+9wnw2560100 0.0 1014503
11:00+12w674697 0.0 10141061
14:00+13wsw5748100 0.0 10141614
17:00+13sw675958 0.0 10131693
20:00+10sw337184 0.0 101354
7 may, fri
fri723:00+8ssw2274100 0.0 101215
02:00+8sw2575100 0.2 1010159
05:00+8ssw3985100 0.2 1008392
08:00+10sw4793100 0.3 1008476
11:00+14w5864100 0.0 10081118
14:00+13wsw61069100 0.4 1008927
17:00+14w6964100 0.0 10081074
20:00+11w71357100 0.0 1011833
8 may, sat
sat823:00+9wnw81551100 0.0 1013523
02:00+7wnw8155173 0.0 1015443
05:00+5wnw410630 0.0 1018268
08:00+8n23630 0.0 1021521
11:00+11se13515 0.0 10211578
14:00+14s454185 0.0 10202205
17:00+15w354468 0.0 10202455
20:00+9w45634 0.0 102176
9 may, sun
sun923:00+6wnw226495 0.0 102318
02:00+5nnw226950 0.0 102413
05:00+4w117211 0.0 102410
08:00+9s22655 0.0 1025249
11:00+14s45555 0.0 10241048
14:00+16s45505 0.0 10231389
17:00+16sse45525 0.0 10221220
20:00+11sse11750 0.0 102210
10 may, mon
mon1023:00+9nne11741 0.0 102211
02:00+8nne11730 0.0 102211
05:00+6nne12840 0.0 102211
08:00+11e22730 0.0 1022212
11:00+16se35630 0.0 1021659
14:00+20sse56560 0.0 10191210
17:00+20s466337 0.0 10181199
20:00+15sse228337 0.0 101811